Home   Weather   Traun   Past weeks

Flag for Austria Past Weather in Traun, Upper Austria, Austria — Yesterday and Last 2 Weeks

Now
30 °F

Partly sunny.


Feels Like: 22 °F
Forecast: 24 / 37 °F
Wind: 9 mph from Northwest

Location: Linz / Hoersching-Flughafen

Current Time: Dec 6, 2016 at 11:10:42 am

Latest Report: Dec 6, 2016 at 10:20 am


Visibility: 4 mi

Pressure: 30.45 "Hg

Humidity: 86%

Dew Point: 27 °F

Location of TraunLocation

Past Weather in Traun — Graph

°F

Traun Temperature Yesterday

Maximum temperature yesterday: 28 °F (at 12:20 am)
Minimum temperature yesterday: 28 °F (at 12:20 am)
Average temperature yesterday: 28 °F

High & Low Weather Summary for the Past Weeks

 TemperatureHumidityPressure
High59 °F (Nov 21, 2:20 pm)100% (Nov 21, 9:20 am)30.54 "Hg (Nov 21, 9:20 am)
Low19 °F (Nov 30, 3:50 am)44% (Nov 28, 12:50 pm)29.74 "Hg (Nov 21, 2:20 pm)
Average36 °F85%30.19 "Hg
* Reported Nov 21 9:20 am — Dec 6 9:50 am, Traun, Weather by CustomWeather, © 2016

Note: Actual official high and low records may vary slightly from our data, if they occured in-between our weather recording intervals... More about our weather records

Advertising

Traun Weather History for the Previous 24 Hours

Scroll right to see more
 ConditionsComfort  
Time TempWeatherWind HumidityBarometerVisibility
9:50 am
Tue, Dec 6
30 °FPartly sunny.8 mph86%30.45 "Hg4 mi
9:20 am28 °FLight freezing rain. Partly sunny.8 mph93%30.45 "Hg3 mi
8:50 am28 °FLight freezing rain. Low clouds.8 mph93%30.45 "Hg3 mi
8:20 am28 °FLight freezing rain. Low clouds.8 mph93%30.42 "Hg3 mi
7:50 am28 °FLight freezing rain. Low clouds.10 mph93%30.42 "Hg3 mi
7:20 am28 °FLow clouds.12 mph93%30.42 "Hg4 mi
6:50 am28 °FLow clouds.9 mph93%30.42 "Hg4 mi
6:20 am28 °FLow clouds.7 mph93%30.42 "Hg4 mi
5:50 am28 °FLow clouds.5 mph86%30.39 "Hg4 mi
5:20 am28 °FLow clouds.6 mph86%30.39 "Hg4 mi
4:50 am28 °FPassing clouds.5 mph86%30.42 "Hg4 mi
4:20 am28 °FLow clouds.5 mph93%30.39 "Hg4 mi
3:50 am28 °FPassing clouds.5 mph86%30.39 "Hg4 mi
3:20 am28 °FLight freezing rain. Low clouds.8 mph93%30.42 "Hg4 mi
2:50 am28 °FPassing clouds.9 mph93%30.42 "Hg4 mi
2:20 am28 °FLow clouds.8 mph93%30.39 "Hg4 mi
1:50 am28 °FLight freezing rain. Partly cloudy.8 mph86%30.39 "Hg4 mi
1:20 am28 °FLight freezing rain. Passing clouds.8 mph86%30.39 "Hg4 mi
12:50 am28 °FLight freezing rain. Passing clouds.8 mph86%30.39 "Hg4 mi
12:20 am28 °FPartly cloudy.7 mph86%30.39 "Hg4 mi
11:50 pm
Mon, Dec 5
28 °FLow clouds.7 mph86%30.39 "Hg4 mi
11:20 pm28 °FPassing clouds.7 mph86%30.39 "Hg4 mi
10:50 pm28 °FPassing clouds.5 mph86%30.39 "Hg4 mi
10:20 pm28 °FPartly cloudy.6 mph86%30.39 "Hg4 mi
9:50 pm28 °FPassing clouds.6 mph86%30.39 "Hg4 mi
9:20 pm28 °FLow clouds.7 mph86%30.39 "Hg4 mi
8:50 pm28 °FPassing clouds.7 mph86%30.39 "Hg5 mi
8:20 pm28 °FLow clouds.5 mph86%30.39 "Hg4 mi
7:50 pm28 °FLow clouds.5 mph86%30.39 "Hg5 mi
7:20 pm28 °FLow clouds.5 mph86%30.39 "Hg5 mi
6:50 pm28 °FLow clouds.5 mph86%30.39 "Hg5 mi
6:20 pm28 °FLow clouds.5 mph86%30.39 "Hg5 mi
5:50 pm28 °FLow clouds.3 mph86%30.39 "Hg5 mi
5:20 pm28 °FOvercast.5 mph86%30.39 "Hg5 mi
4:50 pm28 °FOvercast.2 mph86%30.39 "Hg4 mi
4:20 pm28 °FOvercast.1 mph86%30.39 "Hg4 mi
3:50 pm28 °FOvercast.5 mph86%30.39 "Hg5 mi
3:20 pm28 °FOvercast.2 mph86%30.39 "Hg5 mi
2:50 pm28 °FOvercast.2 mph86%30.36 "Hg5 mi
2:20 pm28 °FOvercast.5 mph86%30.39 "Hg5 mi
1:50 pm28 °FPartly sunny.2 mph86%30.39 "Hg5 mi
1:20 pm28 °FPartly sunny.1 mph86%30.39 "Hg5 mi
12:50 pm28 °FPartly sunny.2 mph86%30.39 "Hg5 mi
12:20 pm28 °FPartly sunny.2 mph86%30.39 "Hg5 mi
11:50 am28 °FPartly sunny.3 mph86%30.39 "Hg5 mi
11:20 am28 °FPartly sunny.2 mph86%30.39 "Hg5 mi
Weather by CustomWeather, © 2016

See weather overviewHow to use our weather pages